contact:dominique.lefevre@mio.osupytheas.fr, maurice.libes@osupytheas.fr, didier.mallarino@osupytheas.fr
Project:EMSO http://www.emso-fr.org/EMSO-France
Depth: 2436.0 m
Title:EMSO Ligure Ouest : Data MII capteur CSTAR
DateTime,Latitude,Longitude,Instrument_Serial,Reference_Counts,Signal_Counts,Corrected_Signal_raw_counts,Calculated_Beam_c_inverse_meters,Internal_thermistor_counts
DateTime,Latitude,Longitude,Instrument_Serial,Reference_Counts,Signal_Counts,Corrected_Signal_raw_counts,Calculated_Beam_c_inverse_meters,Internal_thermistor_counts
2023-03-27T00:02:06,42.805,6.029,CST-1368DR,4341,4683,11457,01.239,551
2023-03-27T00:05:08,42.805,6.029,CST-1368DR,4341,4697,11491,01.227,551
2023-03-27T00:08:10,42.805,6.029,CST-1368DR,4341,4695,11486,01.229,551
2023-03-27T00:11:11,42.805,6.029,CST-1368DR,4341,4695,11486,01.229,551
2023-03-27T00:14:13,42.805,6.029,CST-1368DR,4341,4689,11471,01.234,551
2023-03-27T00:17:14,42.805,6.029,CST-1368DR,4341,4691,11478,01.231,551
2023-03-27T00:20:16,42.805,6.029,CST-1368DR,4341,4691,11478,01.231,551
2023-03-27T00:23:17,42.805,6.029,CST-1368DR,4341,4698,11494,01.226,551
2023-03-27T00:26:19,42.805,6.029,CST-1368DR,4341,4701,11502,01.223,551
2023-03-27T00:29:21,42.805,6.029,CST-1368DR,4341,4691,11477,01.232,551
2023-03-27T00:32:22,42.805,6.029,CST-1368DR,4341,4678,11446,01.243,551
2023-03-27T00:35:24,42.805,6.029,CST-1368DR,4341,4691,11478,01.231,551
2023-03-27T00:38:25,42.805,6.029,CST-1368DR,4341,4699,11496,01.225,551
2023-03-27T00:41:27,42.805,6.029,CST-1368DR,4341,4699,11496,01.225,551
2023-03-27T00:44:28,42.805,6.029,CST-1368DR,4341,4696,11488,01.228,551
2023-03-27T00:47:30,42.805,6.029,CST-1368DR,4341,4695,11488,01.228,551
2023-03-27T00:50:32,42.805,6.029,CST-1368DR,4341,4696,11489,01.228,551
2023-03-27T00:53:33,42.805,6.029,CST-1368DR,4341,4693,11482,01.230,551
2023-03-27T00:56:35,42.805,6.029,CST-1368DR,4341,4695,11486,01.229,551
2023-03-27T00:59:36,42.805,6.029,CST-1368DR,4341,4690,11474,01.233,551
2023-03-27T01:02:38,42.805,6.029,CST-1368DR,4341,4697,11491,01.227,551
2023-03-27T01:05:40,42.805,6.029,CST-1368DR,4341,4693,11482,01.230,551
2023-03-27T01:08:41,42.805,6.029,CST-1368DR,4341,4694,11484,01.229,551
2023-03-27T01:11:43,42.805,6.029,CST-1368DR,4341,4686,11466,01.236,551
2023-03-27T01:14:44,42.805,6.029,CST-1368DR,4341,4692,11479,01.231,551
2023-03-27T01:17:46,42.805,6.029,CST-1368DR,4341,4696,11490,01.227,552
2023-03-27T01:20:47,42.805,6.029,CST-1368DR,4341,4692,11480,01.231,551
2023-03-27T01:23:49,42.805,6.029,CST-1368DR,4341,4693,11482,01.230,551
2023-03-27T01:26:51,42.805,6.029,CST-1368DR,4341,4693,11482,01.230,551
2023-03-27T01:29:52,42.805,6.029,CST-1368DR,4341,4699,11497,01.225,551
2023-03-27T01:32:54,42.805,6.029,CST-1368DR,4341,4684,11459,01.238,551
2023-03-27T01:35:55,42.805,6.029,CST-1368DR,4341,4695,11486,01.229,551
2023-03-27T01:38:57,42.805,6.029,CST-1368DR,4341,4690,11475,01.233,551
2023-03-27T01:41:58,42.805,6.029,CST-1368DR,4341,4691,11478,01.231,551
2023-03-27T01:45:00,42.805,6.029,CST-1368DR,4341,4694,11483,01.230,551
2023-03-27T01:48:02,42.805,6.029,CST-1368DR,4341,4689,11471,01.234,551
2023-03-27T01:51:03,42.805,6.029,CST-1368DR,4341,4693,11483,01.230,551
2023-03-27T01:54:05,42.805,6.029,CST-1368DR,4341,4696,11490,01.227,551
2023-03-27T01:57:06,42.805,6.029,CST-1368DR,4341,4692,11480,01.231,551
2023-03-27T02:00:08,42.805,6.029,CST-1368DR,4341,4696,11489,01.228,551
2023-03-27T02:03:10,42.805,6.029,CST-1368DR,4341,4695,11488,01.228,551
2023-03-27T02:06:11,42.805,6.029,CST-1368DR,4341,4688,11469,01.235,551
2023-03-27T02:09:13,42.805,6.029,CST-1368DR,4341,4700,11499,01.224,551
2023-03-27T02:12:14,42.805,6.029,CST-1368DR,4341,4699,11496,01.225,551
2023-03-27T02:15:16,42.805,6.029,CST-1368DR,4341,4696,11489,01.228,551
2023-03-27T02:18:17,42.805,6.029,CST-1368DR,4341,4694,11484,01.229,551
2023-03-27T02:21:19,42.805,6.029,CST-1368DR,4341,4695,11486,01.229,551
2023-03-27T02:24:21,42.805,6.029,CST-1368DR,4341,4695,11486,01.229,551
2023-03-27T02:27:22,42.805,6.029,CST-1368DR,4341,4694,11485,01.229,551
2023-03-27T02:30:24,42.805,6.029,CST-1368DR,4341,4685,11461,01.237,551
2023-03-27T02:33:25,42.805,6.029,CST-1368DR,4341,4698,11494,01.226,551
2023-03-27T02:36:27,42.805,6.029,CST-1368DR,4341,4689,11473,01.233,551
2023-03-27T02:39:28,42.805,6.029,CST-1368DR,4341,4696,11488,01.228,551
2023-03-27T02:42:30,42.805,6.029,CST-1368DR,4341,4700,11498,01.224,551
2023-03-27T02:45:32,42.805,6.029,CST-1368DR,4341,4692,11480,01.231,551
2023-03-27T02:48:33,42.805,6.029,CST-1368DR,4341,4698,11494,01.226,551
2023-03-27T02:51:35,42.805,6.029,CST-1368DR,4341,4699,11496,01.225,551
2023-03-27T02:54:36,42.805,6.029,CST-1368DR,4341,4702,11504,01.222,551
2023-03-27T02:57:38,42.805,6.029,CST-1368DR,4341,4694,11483,01.230,551
2023-03-27T03:00:39,42.805,6.029,CST-1368DR,4341,4698,11495,01.226,551
2023-03-27T03:03:41,42.805,6.029,CST-1368DR,4341,4703,11507,01.221,551
2023-03-27T03:06:43,42.805,6.029,CST-1368DR,4341,4703,11507,01.221,551
2023-03-27T03:09:44,42.805,6.029,CST-1368DR,4341,4696,11489,01.228,551
2023-03-27T03:12:46,42.805,6.029,CST-1368DR,4341,4702,11503,01.223,551
2023-03-27T03:15:47,42.805,6.029,CST-1368DR,4341,4692,11480,01.231,551
2023-03-27T03:18:49,42.805,6.029,CST-1368DR,4341,4683,11458,01.238,551
2023-03-27T03:21:51,42.805,6.029,CST-1368DR,4341,4692,11480,01.231,551
2023-03-27T03:24:52,42.805,6.029,CST-1368DR,4341,4701,11502,01.223,551
2023-03-27T03:27:54,42.805,6.029,CST-1368DR,4341,4689,11472,01.234,551
2023-03-27T03:30:55,42.805,6.029,CST-1368DR,4341,4691,11478,01.231,551
2023-03-27T03:33:57,42.805,6.029,CST-1368DR,4341,4690,11475,01.233,551
2023-03-27T03:36:58,42.805,6.029,CST-1368DR,4341,4702,11503,01.223,551
2023-03-27T03:40:00,42.805,6.029,CST-1368DR,4341,4699,11497,01.225,551
2023-03-27T03:43:02,42.805,6.029,CST-1368DR,4341,4707,11516,01.218,551
2023-03-27T03:46:03,42.805,6.029,CST-1368DR,4341,4700,11498,01.224,551
2023-03-27T03:49:05,42.805,6.029,CST-1368DR,4341,4686,11464,01.236,551
2023-03-27T03:52:06,42.805,6.029,CST-1368DR,4341,4688,11469,01.235,551
2023-03-27T03:55:08,42.805,6.029,CST-1368DR,4341,4705,11510,01.220,551
2023-03-27T03:58:09,42.805,6.029,CST-1368DR,4341,4694,11485,01.229,551
2023-03-27T04:01:11,42.805,6.029,CST-1368DR,4341,4684,11461,01.237,551
2023-03-27T04:04:13,42.805,6.029,CST-1368DR,4341,4694,11484,01.229,551
2023-03-27T04:07:14,42.805,6.029,CST-1368DR,4341,4702,11503,01.223,551
2023-03-27T04:10:16,42.805,6.029,CST-1368DR,4341,4691,11478,01.231,551
2023-03-27T04:13:17,42.805,6.029,CST-1368DR,4341,4687,11466,01.236,551
2023-03-27T04:16:19,42.805,6.029,CST-1368DR,4341,4680,11451,01.241,551
2023-03-27T04:19:21,42.805,6.029,CST-1368DR,4341,4682,11455,01.239,551
2023-03-27T04:22:22,42.805,6.029,CST-1368DR,4341,4688,11469,01.235,551
2023-03-27T04:25:24,42.805,6.029,CST-1368DR,4341,4676,11439,01.245,551
2023-03-27T04:28:25,42.805,6.029,CST-1368DR,4341,4692,11480,01.231,551
2023-03-27T04:31:30,42.805,6.029,CST-1368DR,4341,4676,11441,01.244,551
2023-03-27T04:34:31,42.805,6.029,CST-1368DR,4341,4684,11460,01.238,551
2023-03-27T04:37:33,42.805,6.029,CST-1368DR,4341,4686,11464,01.236,551
2023-03-27T04:40:35,42.805,6.029,CST-1368DR,4341,4689,11471,01.234,551
2023-03-27T04:43:36,42.805,6.029,CST-1368DR,4341,4686,11465,01.236,551
2023-03-27T04:46:38,42.805,6.029,CST-1368DR,4341,4679,11448,01.242,551
2023-03-27T04:49:39,42.805,6.029,CST-1368DR,4341,4676,11440,01.245,551
2023-03-27T04:52:41,42.805,6.029,CST-1368DR,4341,4680,11451,01.241,551
2023-03-27T04:55:42,42.805,6.029,CST-1368DR,4341,4693,11482,01.230,551
2023-03-27T04:58:44,42.805,6.029,CST-1368DR,4341,4695,11487,01.228,551
2023-03-27T05:01:46,42.805,6.029,CST-1368DR,4341,4686,11466,01.236,551
2023-03-27T05:04:47,42.805,6.029,CST-1368DR,4341,4686,11464,01.236,551
2023-03-27T05:07:49,42.805,6.029,CST-1368DR,4341,4692,11479,01.231,551
2023-03-27T05:10:50,42.805,6.029,CST-1368DR,4341,4684,11459,01.238,551
2023-03-27T05:13:52,42.805,6.029,CST-1368DR,4341,4682,11455,01.239,551
2023-03-27T05:16:53,42.805,6.029,CST-1368DR,4341,4686,11466,01.236,551
2023-03-27T05:19:55,42.805,6.029,CST-1368DR,4341,4687,11466,01.236,551
2023-03-27T05:22:57,42.805,6.029,CST-1368DR,4341,4679,11447,01.242,551
2023-03-27T05:25:58,42.805,6.029,CST-1368DR,4341,4682,11455,01.239,551
2023-03-27T05:29:00,42.805,6.029,CST-1368DR,4341,4671,11429,01.249,551
2023-03-27T05:32:01,42.805,6.029,CST-1368DR,4341,4689,11472,01.234,551
2023-03-27T05:35:03,42.805,6.029,CST-1368DR,4341,4685,11462,01.237,550
2023-03-27T05:38:04,42.805,6.029,CST-1368DR,4341,4681,11453,01.240,551
2023-03-27T05:41:06,42.805,6.029,CST-1368DR,4341,4679,11449,01.242,551
2023-03-27T05:44:08,42.805,6.029,CST-1368DR,4341,4693,11481,01.230,551
2023-03-27T05:47:09,42.805,6.029,CST-1368DR,4341,4685,11461,01.237,551
2023-03-27T05:50:11,42.805,6.029,CST-1368DR,4341,4682,11456,01.239,551
2023-03-27T05:53:12,42.805,6.029,CST-1368DR,4341,4689,11472,01.234,551
2023-03-27T05:56:14,42.805,6.029,CST-1368DR,4341,4686,11465,01.236,551
2023-03-27T05:59:16,42.805,6.029,CST-1368DR,4341,4692,11479,01.231,551
2023-03-27T06:02:17,42.805,6.029,CST-1368DR,4341,4679,11448,01.242,551
2023-03-27T06:05:19,42.805,6.029,CST-1368DR,4341,4678,11445,01.243,551
2023-03-27T06:08:20,42.805,6.029,CST-1368DR,4341,4673,11433,01.247,551
2023-03-27T06:11:22,42.805,6.029,CST-1368DR,4341,4683,11457,01.239,551
2023-03-27T06:14:23,42.805,6.029,CST-1368DR,4341,4691,11477,01.232,551
2023-03-27T06:17:25,42.805,6.029,CST-1368DR,4341,4693,11482,01.230,551
2023-03-27T06:20:27,42.805,6.029,CST-1368DR,4341,4693,11482,01.230,551
2023-03-27T06:23:28,42.805,6.029,CST-1368DR,4341,4680,11451,01.241,551
2023-03-27T06:26:30,42.805,6.029,CST-1368DR,4341,4674,11436,01.246,551
2023-03-27T06:29:31,42.805,6.029,CST-1368DR,4341,4684,11460,01.238,551
2023-03-27T06:32:33,42.805,6.029,CST-1368DR,4341,4676,11441,01.244,551
2023-03-27T06:35:34,42.805,6.029,CST-1368DR,4341,4684,11461,01.237,551
2023-03-27T06:38:36,42.805,6.029,CST-1368DR,4341,4689,11471,01.234,551
2023-03-27T06:41:37,42.805,6.029,CST-1368DR,4341,4689,11473,01.233,551
2023-03-27T06:44:39,42.805,6.029,CST-1368DR,4341,4701,11502,01.223,551
2023-03-27T06:47:40,42.805,6.029,CST-1368DR,4341,4683,11457,01.239,551
2023-03-27T06:50:42,42.805,6.029,CST-1368DR,4341,4686,11464,01.236,551
2023-03-27T06:53:44,42.805,6.029,CST-1368DR,4341,4686,11466,01.236,551
2023-03-27T06:56:45,42.805,6.029,CST-1368DR,4341,4673,11433,01.247,551
2023-03-27T06:59:47,42.805,6.029,CST-1368DR,4341,4682,11455,01.239,551
2023-03-27T07:02:48,42.805,6.029,CST-1368DR,4341,4675,11438,01.245,551
2023-03-27T07:05:50,42.805,6.029,CST-1368DR,4341,4673,11432,01.248,551
2023-03-27T07:08:51,42.805,6.029,CST-1368DR,4341,4679,11448,01.242,551
2023-03-27T07:11:53,42.805,6.029,CST-1368DR,4341,4677,11444,01.243,551
2023-03-27T07:14:55,42.805,6.029,CST-1368DR,4341,4678,11446,01.243,551
2023-03-27T07:17:56,42.805,6.029,CST-1368DR,4341,4683,11458,01.238,551
2023-03-27T07:20:58,42.805,6.029,CST-1368DR,4341,4687,11467,01.235,551
2023-03-27T07:23:59,42.805,6.029,CST-1368DR,4341,4682,11454,01.240,551
2023-03-27T07:27:01,42.805,6.029,CST-1368DR,4341,4689,11473,01.233,551
2023-03-27T07:30:03,42.805,6.029,CST-1368DR,4341,4681,11452,01.241,551
2023-03-27T07:33:04,42.805,6.029,CST-1368DR,4341,4680,11451,01.241,551
2023-03-27T07:36:06,42.805,6.029,CST-1368DR,4341,4675,11438,01.245,551
2023-03-27T07:39:07,42.805,6.029,CST-1368DR,4341,4674,11436,01.246,551
2023-03-27T07:42:09,42.805,6.029,CST-1368DR,4341,4675,11438,01.245,551
2023-03-27T07:45:10,42.805,6.029,CST-1368DR,4341,4679,11449,01.242,551
2023-03-27T07:48:12,42.805,6.029,CST-1368DR,4341,4678,11444,01.243,551
2023-03-27T07:51:14,42.805,6.029,CST-1368DR,4341,4667,11419,01.252,551
2023-03-27T07:54:15,42.805,6.029,CST-1368DR,4341,4672,11431,01.248,551
2023-03-27T07:57:17,42.805,6.029,CST-1368DR,4341,4682,11456,01.239,551
2023-03-27T08:00:18,42.805,6.029,CST-1368DR,4341,4677,11442,01.244,551
2023-03-27T08:03:20,42.805,6.029,CST-1368DR,4341,4668,11420,01.252,551
2023-03-27T08:06:21,42.805,6.029,CST-1368DR,4341,4668,11420,01.252,551
2023-03-27T08:09:23,42.805,6.029,CST-1368DR,4341,4686,11464,01.236,551
2023-03-27T08:12:25,42.805,6.029,CST-1368DR,4341,4677,11442,01.244,551
2023-03-27T08:15:26,42.805,6.029,CST-1368DR,4341,4675,11438,01.245,551
2023-03-27T08:18:28,42.805,6.029,CST-1368DR,4341,4669,11422,01.251,551
2023-03-27T08:21:29,42.805,6.029,CST-1368DR,4341,4675,11439,01.245,551
2023-03-27T08:24:31,42.805,6.029,CST-1368DR,4341,4684,11460,01.238,551
2023-03-27T08:27:33,42.805,6.029,CST-1368DR,4341,4673,11433,01.247,551
2023-03-27T08:30:35,42.805,6.029,CST-1368DR,4341,4673,11432,01.248,551
2023-03-27T08:33:37,42.805,6.029,CST-1368DR,4341,4673,11433,01.247,551
2023-03-27T08:36:38,42.805,6.029,CST-1368DR,4341,4684,11461,01.237,551
2023-03-27T08:39:40,42.805,6.029,CST-1368DR,4341,4684,11461,01.237,551
2023-03-27T08:42:42,42.805,6.029,CST-1368DR,4341,4682,11455,01.239,551
2023-03-27T08:45:43,42.805,6.029,CST-1368DR,4341,4678,11444,01.243,551
2023-03-27T08:48:45,42.805,6.029,CST-1368DR,4341,4683,11457,01.239,551
2023-03-27T08:51:46,42.805,6.029,CST-1368DR,4341,4688,11469,01.235,551
2023-03-27T08:54:48,42.805,6.029,CST-1368DR,4341,4675,11437,01.246,551
2023-03-27T08:57:49,42.805,6.029,CST-1368DR,4341,4677,11442,01.244,551
2023-03-27T09:00:51,42.805,6.029,CST-1368DR,4341,4672,11430,01.248,551
2023-03-27T09:03:53,42.805,6.029,CST-1368DR,4341,4675,11437,01.246,551
2023-03-27T09:06:54,42.805,6.029,CST-1368DR,4341,4666,11415,01.253,551
2023-03-27T09:09:56,42.805,6.029,CST-1368DR,4341,4676,11441,01.244,551
2023-03-27T09:12:57,42.805,6.029,CST-1368DR,4341,4682,11455,01.239,551
2023-03-27T09:15:59,42.805,6.029,CST-1368DR,4341,4687,11467,01.235,551
2023-03-27T09:19:00,42.805,6.029,CST-1368DR,4341,4672,11430,01.248,551
2023-03-27T09:22:02,42.805,6.029,CST-1368DR,4341,4681,11453,01.240,551
2023-03-27T09:25:04,42.805,6.029,CST-1368DR,4341,4672,11430,01.248,551
2023-03-27T09:28:05,42.805,6.029,CST-1368DR,4341,4680,11450,01.241,551
2023-03-27T09:31:07,42.805,6.029,CST-1368DR,4341,4687,11467,01.235,551
2023-03-27T09:34:08,42.805,6.029,CST-1368DR,4341,4679,11447,01.242,551
2023-03-27T09:37:10,42.805,6.029,CST-1368DR,4341,4681,11452,01.241,551
2023-03-27T09:40:12,42.805,6.029,CST-1368DR,4341,4668,11422,01.251,551
2023-03-27T09:43:13,42.805,6.029,CST-1368DR,4341,4679,11447,01.242,551
2023-03-27T09:46:15,42.805,6.029,CST-1368DR,4341,4672,11430,01.248,551
2023-03-27T09:49:16,42.805,6.029,CST-1368DR,4341,4658,11397,01.260,551
2023-03-27T09:52:18,42.805,6.029,CST-1368DR,4341,4672,11431,01.248,551
2023-03-27T09:55:19,42.805,6.029,CST-1368DR,4341,4676,11439,01.245,551
2023-03-27T09:58:21,42.805,6.029,CST-1368DR,4341,4664,11411,01.255,551
2023-03-27T10:01:23,42.805,6.029,CST-1368DR,4341,4690,11474,01.233,551
2023-03-27T10:04:24,42.805,6.029,CST-1368DR,4341,4675,11439,01.245,551
2023-03-27T10:07:26,42.805,6.029,CST-1368DR,4341,4665,11414,01.254,551
2023-03-27T10:10:27,42.805,6.029,CST-1368DR,4341,4683,11458,01.238,551
2023-03-27T10:13:29,42.805,6.029,CST-1368DR,4341,4682,11455,01.239,551
2023-03-27T10:16:30,42.805,6.029,CST-1368DR,4341,4659,11400,01.259,551
2023-03-27T10:19:32,42.805,6.029,CST-1368DR,4341,4674,11434,01.247,551
2023-03-27T10:22:34,42.805,6.029,CST-1368DR,4341,4671,11429,01.249,551
2023-03-27T10:25:35,42.805,6.029,CST-1368DR,4341,4671,11428,01.249,551
2023-03-27T10:28:37,42.805,6.029,CST-1368DR,4341,4677,11442,01.244,551
2023-03-27T10:31:38,42.805,6.029,CST-1368DR,4341,4668,11421,01.251,551
2023-03-27T10:34:40,42.805,6.029,CST-1368DR,4341,4658,11396,01.260,551
2023-03-27T10:37:42,42.805,6.029,CST-1368DR,4341,4683,11456,01.239,551
2023-03-27T10:40:43,42.805,6.029,CST-1368DR,4341,4682,11455,01.239,551
2023-03-27T10:43:45,42.805,6.029,CST-1368DR,4341,4685,11463,01.237,551
2023-03-27T10:46:46,42.805,6.029,CST-1368DR,4341,4688,11471,01.234,551
2023-03-27T10:49:48,42.805,6.029,CST-1368DR,4341,4679,11447,01.242,551
2023-03-27T10:52:49,42.805,6.029,CST-1368DR,4341,4686,11466,01.236,551
2023-03-27T10:55:51,42.805,6.029,CST-1368DR,4341,4690,11474,01.233,551
2023-03-27T10:58:53,42.805,6.029,CST-1368DR,4341,4677,11442,01.244,551
2023-03-27T11:01:54,42.805,6.029,CST-1368DR,4341,4683,11458,01.238,551
2023-03-27T11:04:56,42.805,6.029,CST-1368DR,4341,4665,11414,01.254,551
2023-03-27T11:07:57,42.805,6.029,CST-1368DR,4341,4681,11453,01.240,551
2023-03-27T11:10:59,42.805,6.029,CST-1368DR,4341,4665,11414,01.254,551
2023-03-27T11:14:00,42.805,6.029,CST-1368DR,4341,4663,11408,01.256,551
2023-03-27T11:17:02,42.805,6.029,CST-1368DR,4341,4657,11395,01.260,551
2023-03-27T11:20:04,42.805,6.029,CST-1368DR,4341,4671,11428,01.249,551
2023-03-27T11:23:05,42.805,6.029,CST-1368DR,4341,4684,11460,01.238,551
2023-03-27T11:26:07,42.805,6.029,CST-1368DR,4341,4682,11455,01.239,551
2023-03-27T11:29:08,42.805,6.029,CST-1368DR,4341,4665,11413,01.254,551
2023-03-27T11:32:10,42.805,6.029,CST-1368DR,4341,4671,11429,01.249,551
2023-03-27T11:35:11,42.805,6.029,CST-1368DR,4341,4685,11462,01.237,551
2023-03-27T11:38:13,42.805,6.029,CST-1368DR,4341,4680,11449,01.242,551
2023-03-27T11:41:15,42.805,6.029,CST-1368DR,4341,4682,11455,01.239,551
2023-03-27T11:44:16,42.805,6.029,CST-1368DR,4341,4683,11456,01.239,551
2023-03-27T11:47:18,42.805,6.029,CST-1368DR,4341,4681,11452,01.241,551
2023-03-27T11:50:19,42.805,6.029,CST-1368DR,4341,4680,11449,01.242,551
2023-03-27T11:53:21,42.805,6.029,CST-1368DR,4341,4671,11429,01.249,551
2023-03-27T11:56:23,42.805,6.029,CST-1368DR,4341,4672,11431,01.248,551
2023-03-27T11:59:24,42.805,6.029,CST-1368DR,4341,4678,11445,01.243,551
2023-03-27T12:02:26,42.805,6.029,CST-1368DR,4341,4681,11452,01.241,551
2023-03-27T12:05:27,42.805,6.029,CST-1368DR,4341,4687,11466,01.236,551
2023-03-27T12:08:29,42.805,6.029,CST-1368DR,4341,4684,11460,01.238,551
2023-03-27T12:11:30,42.805,6.029,CST-1368DR,4341,4672,11430,01.248,551
2023-03-27T12:14:32,42.805,6.029,CST-1368DR,4341,4673,11434,01.247,551
2023-03-27T12:17:34,42.805,6.029,CST-1368DR,4341,4682,11455,01.239,551
2023-03-27T12:20:35,42.805,6.029,CST-1368DR,4341,4673,11433,01.247,551
2023-03-27T12:23:37,42.805,6.029,CST-1368DR,4341,4674,11436,01.246,551
2023-03-27T12:26:38,42.805,6.029,CST-1368DR,4341,4683,11456,01.239,551
2023-03-27T12:29:40,42.805,6.029,CST-1368DR,4341,4685,11463,01.237,551
2023-03-27T12:32:41,42.805,6.029,CST-1368DR,4341,4661,11403,01.258,551
2023-03-27T12:35:43,42.805,6.029,CST-1368DR,4341,4677,11444,01.243,551
2023-03-27T12:38:44,42.805,6.029,CST-1368DR,4341,4659,11398,01.259,551
2023-03-27T12:41:46,42.805,6.029,CST-1368DR,4341,4674,11436,01.246,551
2023-03-27T12:44:47,42.805,6.029,CST-1368DR,4341,4686,11466,01.236,551
2023-03-27T12:47:49,42.805,6.029,CST-1368DR,4341,4685,11461,01.237,551
2023-03-27T12:50:51,42.805,6.029,CST-1368DR,4341,4678,11446,01.243,551
2023-03-27T12:53:52,42.805,6.029,CST-1368DR,4341,4684,11459,01.238,552
2023-03-27T12:56:54,42.805,6.029,CST-1368DR,4341,4669,11424,01.250,551
2023-03-27T12:59:55,42.805,6.029,CST-1368DR,4341,4677,11442,01.244,551
2023-03-27T13:02:57,42.805,6.029,CST-1368DR,4341,4686,11464,01.236,551
2023-03-27T13:05:58,42.805,6.029,CST-1368DR,4341,4674,11434,01.247,551
2023-03-27T13:09:00,42.805,6.029,CST-1368DR,4341,4678,11446,01.243,551
2023-03-27T13:12:02,42.805,6.029,CST-1368DR,4341,4679,11448,01.242,551
2023-03-27T13:15:03,42.805,6.029,CST-1368DR,4341,4686,11466,01.236,551
2023-03-27T13:18:05,42.805,6.029,CST-1368DR,4341,4679,11449,01.242,551
2023-03-27T13:21:06,42.805,6.029,CST-1368DR,4341,4675,11439,01.245,551
2023-03-27T13:24:08,42.805,6.029,CST-1368DR,4341,4676,11439,01.245,551
2023-03-27T13:27:09,42.805,6.029,CST-1368DR,4341,4684,11459,01.238,551
2023-03-27T13:30:11,42.805,6.029,CST-1368DR,4341,4681,11453,01.240,551
2023-03-27T13:33:13,42.805,6.029,CST-1368DR,4341,4679,11447,01.242,551
2023-03-27T13:36:14,42.805,6.029,CST-1368DR,4341,4674,11436,01.246,551
2023-03-27T13:39:16,42.805,6.029,CST-1368DR,4341,4688,11470,01.234,551
2023-03-27T13:42:17,42.805,6.029,CST-1368DR,4341,4693,11482,01.230,551
2023-03-27T13:45:19,42.805,6.029,CST-1368DR,4341,4680,11450,01.241,551
2023-03-27T13:48:21,42.805,6.029,CST-1368DR,4341,4684,11461,01.237,551
2023-03-27T13:51:22,42.805,6.029,CST-1368DR,4341,4686,11465,01.236,551
2023-03-27T13:54:24,42.805,6.029,CST-1368DR,4341,4685,11463,01.237,551
2023-03-27T13:57:25,42.805,6.029,CST-1368DR,4341,4690,11474,01.233,551
2023-03-27T14:00:27,42.805,6.029,CST-1368DR,4341,4689,11471,01.234,551
2023-03-27T14:03:28,42.805,6.029,CST-1368DR,4341,4688,11469,01.235,551
2023-03-27T14:06:30,42.805,6.029,CST-1368DR,4341,4682,11455,01.239,551
2023-03-27T14:09:32,42.805,6.029,CST-1368DR,4341,4687,11466,01.236,551
2023-03-27T14:12:33,42.805,6.029,CST-1368DR,4341,4682,11455,01.239,551
2023-03-27T14:15:35,42.805,6.029,CST-1368DR,4341,4680,11451,01.241,551
2023-03-27T14:18:36,42.805,6.029,CST-1368DR,4341,4685,11461,01.237,551
2023-03-27T14:21:38,42.805,6.029,CST-1368DR,4341,4687,11466,01.236,551
2023-03-27T14:24:40,42.805,6.029,CST-1368DR,4341,4680,11450,01.241,551
2023-03-27T14:27:41,42.805,6.029,CST-1368DR,4341,4688,11470,01.234,551
2023-03-27T14:30:43,42.805,6.029,CST-1368DR,4341,4675,11438,01.245,551
2023-03-27T14:33:44,42.805,6.029,CST-1368DR,4341,4687,11467,01.235,551
2023-03-27T14:36:46,42.805,6.029,CST-1368DR,4341,4686,11466,01.236,551
2023-03-27T14:39:47,42.805,6.029,CST-1368DR,4341,4685,11461,01.237,551
2023-03-27T14:42:49,42.805,6.029,CST-1368DR,4341,4690,11474,01.233,551
2023-03-27T14:45:51,42.805,6.029,CST-1368DR,4341,4686,11464,01.236,551
2023-03-27T14:48:52,42.805,6.029,CST-1368DR,4341,4688,11469,01.235,551
2023-03-27T14:51:54,42.805,6.029,CST-1368DR,4341,4692,11478,01.231,551
2023-03-27T14:54:55,42.805,6.029,CST-1368DR,4341,4686,11466,01.236,551
2023-03-27T14:57:57,42.805,6.029,CST-1368DR,4341,4686,11464,01.236,551
2023-03-27T15:00:58,42.805,6.029,CST-1368DR,4341,4687,11467,01.235,551
2023-03-27T15:04:00,42.805,6.029,CST-1368DR,4341,4682,11456,01.239,551
2023-03-27T15:07:02,42.805,6.029,CST-1368DR,4341,4685,11461,01.237,551
2023-03-27T15:10:03,42.805,6.029,CST-1368DR,4341,4694,11483,01.230,551
2023-03-27T15:13:05,42.805,6.029,CST-1368DR,4340,4689,11474,01.233,551
2023-03-27T15:16:06,42.805,6.029,CST-1368DR,4341,4693,11482,01.230,551
2023-03-27T15:19:08,42.805,6.029,CST-1368DR,4341,4683,11457,01.239,551
2023-03-27T15:22:09,42.805,6.029,CST-1368DR,4341,4681,11453,01.240,551
2023-03-27T15:25:11,42.805,6.029,CST-1368DR,4341,4688,11469,01.235,551
2023-03-27T15:28:13,42.805,6.029,CST-1368DR,4341,4685,11462,01.237,551
2023-03-27T15:31:14,42.805,6.029,CST-1368DR,4341,4679,11449,01.242,551
2023-03-27T15:34:16,42.805,6.029,CST-1368DR,4340,4684,11461,01.237,551
2023-03-27T15:37:17,42.805,6.029,CST-1368DR,4340,4678,11448,01.242,551
2023-03-27T15:40:19,42.805,6.029,CST-1368DR,4340,4677,11446,01.243,551
2023-03-27T15:43:21,42.805,6.029,CST-1368DR,4340,4666,11419,01.252,551
2023-03-27T15:46:22,42.805,6.029,CST-1368DR,4340,4671,11431,01.248,551
2023-03-27T15:49:24,42.805,6.029,CST-1368DR,4340,4683,11461,01.237,551
2023-03-27T15:52:25,42.805,6.029,CST-1368DR,4340,4676,11442,01.244,551
2023-03-27T15:55:27,42.805,6.029,CST-1368DR,4340,4678,11447,01.242,551
2023-03-27T15:58:28,42.805,6.029,CST-1368DR,4340,4684,11463,01.237,551
2023-03-27T16:01:30,42.805,6.029,CST-1368DR,4340,4683,11460,01.238,551
2023-03-27T16:04:32,42.805,6.029,CST-1368DR,4340,4673,11435,01.246,551
2023-03-27T16:07:33,42.805,6.029,CST-1368DR,4340,4674,11437,01.246,551
2023-03-27T16:10:35,42.805,6.029,CST-1368DR,4341,4683,11458,01.238,551
2023-03-27T16:13:36,42.805,6.029,CST-1368DR,4340,4686,11468,01.235,551
2023-03-27T16:16:38,42.805,6.029,CST-1368DR,4341,4687,11467,01.235,551
2023-03-27T16:19:39,42.805,6.029,CST-1368DR,4340,4682,11458,01.238,551
2023-03-27T16:22:41,42.805,6.029,CST-1368DR,4341,4689,11472,01.234,551
2023-03-27T16:25:43,42.805,6.029,CST-1368DR,4340,4678,11447,01.242,551
2023-03-27T16:28:44,42.805,6.029,CST-1368DR,4340,4678,11448,01.242,551
2023-03-27T16:31:49,42.805,6.029,CST-1368DR,4341,4686,11465,01.236,551
2023-03-27T16:34:50,42.805,6.029,CST-1368DR,4340,4679,11449,01.242,551
2023-03-27T16:37:52,42.805,6.029,CST-1368DR,4340,4690,11477,01.232,551